Wind_Speed
36 34 34 31 31 28 28 20 16 8 19 8 12 17 24 22 25 25 25 35 37 42 45 39 36 26 21 16 11 10 5 5 5 7 8 5 8 9 10 12 15 19 19 20 21 20 17 17 14
33 38 37 35 34 32 30 30 17 13 16 11 12 14 20 24 21 25 24 35 37 45 41 44 37 29 22 19 15 11 9 7 5 4 4 5 5 5 7 7 8 8 8 7 7 7 8 8 9
39 36 38 34 34 29 27 22 19 18 19 20 18 20 20 21 20 21 24 31 36 38 39 48 40 36 25 21 18 14 11 8 6 2 3 4 4 4 5 6 6 7 8 9 9 10 12 13 14
48 40 40 36 32 29 29 27 22 21 23 17 15 19 20 21 20 21 21 30 35 33 35 46 48 45 28 23 22 20 16 10 8 7 9 11 12 13 13 15 16 15 16 18 20 20 20 21 23
48 42 44 36 40 33 31 26 28 26 27 24 21 21 19 20 20 19 19 28 33 28 33 41 48 45 32 29 25 23 23 21 19 19 19 20 20 22 22 23 24 24 25 24 24 25 26 25 26
49 48 48 44 35 44 42 31 29 31 30 27 26 23 20 17 22 15 18 26 30 24 32 38 44 44 43 34 31 30 27 29 27 26 24 26 26 27 28 29 30 31 30 30 30 29 29 30 31
54 51 52 49 44 46 44 41 37 35 33 31 27 25 17 20 17 19 18 22 25 22 27 38 39 36 40 37 42 38 36 33 32 30 30 31 32 31 31 31 32 32 36 34 33 38 37 35 34
52 54 57 52 44 49 47 40 38 42 39 34 30 25 24 23 17 19 18 20 20 19 26 33 31 31 33 41 38 39 36 36 34 34 33 34 33 34 30 29 28 33 33 35 38 35 37 41 41
61 62 56 54 54 49 45 42 40 42 40 36 30 24 17 20 16 20 19 20 17 19 20 28 25 25 26 29 32 35 31 33 37 30 23 24 28 29 27 35 35 34 35 37 42 38 38 42 40
55 59 64 63 58 52 52 50 47 43 45 37 30 25 22 22 20 21 21 13 26 20 15 22 20 18 20 17 22 23 29 20 28 27 31 29 28 25 26 32 38 36 37 37 40 43 44 45 46
61 65 63 59 62 62 60 57 50 48 46 42 37 35 30 30 24 26 24 23 27 16 18 18 15 15 14 15 12 16 22 25 25 25 25 25 27 30 28 34 35 35 37 37 42 42 44 47 50
69 65 64 59 59 58 55 54 53 51 46 45 45 39 34 25 27 30 23 27 18 14 18 19 16 15 12 11 7 9 16 19 22 20 22 24 25 27 30 32 35 38 35 37 37 39 44 43 49
64 63 63 60 60 56 59 49 47 48 48 49 48 43 36 26 31 28 32 34 27 21 22 20 19 18 14 9 11 8 11 13 16 19 18 21 20 21 24 29 33 36 37 37 37 38 42 46 48
72 69 63 61 60 61 53 53 48 48 44 40 42 39 34 27 35 30 33 30 26 26 24 22 19 21 21 16 17 18 17 17 17 16 17 18 20 22 26 27 31 34 35 36 36 40 42 44 49
69 66 68 73 65 63 60 52 49 45 44 43 40 42 32 28 28 31 25 26 30 28 26 26 24 26 22 24 23 23 22 23 21 21 22 22 21 25 26 24 27 31 36 37 39 39 43 45 49
66 63 65 60 56 58 56 53 52 48 46 42 38 40 42 39 34 37 38 37 34 30 29 29 31 26 23 23 25 28 28 29 29 26 24 25 25 27 31 33 31 30 35 37 42 42 47 48 50
55 59 66 64 62 62 58 58 55 54 51 50 43 47 44 46 44 43 44 32 33 37 39 39 35 32 28 26 28 30 34 36 34 30 31 30 30 30 31 33 29 31 42 44 45 46 50 50 51
54 60 70 66 66 65 64 61 63 60 51 51 48 45 41 44 43 46 46 44 42 41 41 35 33 35 39 35 32 35 35 38 38 36 37 33 35 37 39 37 39 44 47 50 53 52 56 57 56
67 60 62 72 75 70 70 65 60 56 55 51 54 49 48 45 45 49 48 45 43 43 43 38 38 35 38 36 33 36 33 36 38 43 46 41 41 38 41 41 39 44 48 54 54 59 61 61 62
71 66 64 64 70 62 62 63 63 60 61 54 58 53 52 48 46 46 46 47 52 42 43 41 43 44 41 42 40 39 42 37 37 38 44 54 48 48 50 50 49 50 50 51 57 60 64 67 65
69 75 77 59 59 69 66 64 65 66 67 65 58 56 53 59 50 51 50 52 48 49 46 43 43 45 48 48 48 46 44 39 41 39 47 52 57 48 51 55 55 54 51 53 56 59 62 63 66
82 81 76 68 70 69 76 70 72 76 75 69 66 54 58 66 54 55 50 50 51 51 49 45 44 46 47 49 49 48 48 44 43 52 50 54 58 64 57 56 59 61 59 59 63 71 72 75 76
83 86 83 84 80 80 71 70 72 78 76 65 64 61 66 64 63 59 54 55 50 50 54 46 49 48 49 47 47 47 47 47 47 52 52 54 58 56 57 55 58 60 62 71 75 80 82 82 83
89 91 89 87 82 76 78 80 73 75 71 68 70 67 72 66 66 62 59 59 58 49 55 53 50 50 54 55 58 57 55 52 53 52 57 58 59 61 65 60 66 68 72 74 77 80 84 84 87
92 88 93 92 84 74 77 84 74 82 87 83 79 75 78 68 71 65 63 62 64 61 59 64 55 58 55 58 60 62 62 63 63 63 62 63 68 69 72 72 68 70 73 79 82 85 87 84 88
98 96 96 98 98 81 79 85 72 86 93 90 88 88 83 76 75 67 72 68 70 66 66 67 65 59 56 61 62 65 69 64 65 65 65 66 70 75 75 76 74 76 77 81 84 86 87 89 92
103 101 102 99 100 91 82 79 83 75 89 94 89 92 88 84 81 74 76 74 73 73 72 72 72 64 62 64 64 63 68 70 67 69 71 71 73 77 77 77 81 85 84 87 90 89 92 93 97
106 106 108 108 102 95 87 75 82 90 74 87 96 96 94 93 87 82 84 78 81 80 76 77 76 76 70 68 69 67 66 64 70 70 72 73 76 75 76 79 82 86 89 92 95 97 100 100 106
111 110 111 111 109 98 96 83 77 96 91 82 92 98 96 98 93 92 90 82 83 82 81 82 83 76 78 74 74 73 72 75 75 78 80 79 80 81 81 83 86 89 91 96 100 105 108 110 112
115 113 115 112 110 109 105 88 81 90 98 93 92 95 98 91 91 88 89 89 89 89 85 85 90 86 83 81 82 81 80 77 82 82 83 87 87 84 91 92 91 95 96 98 102 107 112 114 117
Wind_Direction
207 214 224 229 233 239 236 233 247 236 268 299 311 313 316 324 338 346 353 351 354 358 357 5 3 5 358 4 351 352 355 284 256 252 274 269 260 255 253 260 261 262 269 277 281 288 299 313 321
226 226 226 234 237 244 240 242 236 225 262 287 304 323 320 335 341 345 346 346 349 359 3 15 8 6 8 14 18 14 8 347 338 10 310 274 269 287 297 299 302 295 301 308 334 5 10 4 12
227 229 226 235 236 236 231 229 237 232 264 278 289 306 323 334 335 336 346 345 353 4 6 10 14 16 13 21 31 38 22 6 6 23 29 347 326 336 360 37 66 70 64 61 56 44 33 28 23
230 229 232 238 230 232 226 231 234 245 258 277 290 301 320 327 329 329 343 344 345 359 1 6 14 20 25 31 37 47 48 41 32 39 44 60 73 90 85 81 78 75 66 57 50 44 40 35 28
231 226 231 227 231 232 231 234 240 234 260 277 286 288 309 319 323 320 331 344 346 355 354 5 9 21 29 39 47 52 60 65 66 69 76 81 84 79 77 69 64 60 55 52 48 42 36 33 31
223 228 230 226 240 233 233 224 232 243 258 272 276 285 299 322 332 316 329 347 347 359 2 7 10 21 28 39 50 59 65 68 72 74 73 72 71 68 66 64 62 56 51 48 43 40 36 32 31
226 230 228 226 242 241 236 232 247 250 256 268 272 278 297 284 311 301 326 352 354 359 7 7 13 23 23 36 43 48 54 59 58 59 56 58 60 60 62 60 56 55 48 49 45 40 34 31 25
221 230 231 229 233 235 239 240 252 256 258 265 271 278 287 278 298 296 327 346 346 346 2 3 15 29 26 25 37 37 46 50 52 54 61 62 63 57 54 49 44 35 37 33 32 29 30 26 21
231 234 226 229 232 232 235 241 251 260 259 257 263 276 269 279 289 287 302 335 337 334 4 10 13 22 28 35 25 34 57 54 42 54 54 49 42 39 38 36 30 28 26 28 25 25 23 19 19
229 228 231 241 237 240 240 253 254 252 258 257 260 262 261 267 273 296 284 326 318 309 335 2 8 16 30 33 28 27 39 22 33 35 41 49 44 38 28 28 27 22 17 17 13 14 15 14 13
234 237 236 239 242 240 247 251 248 254 254 255 262 262 272 266 266 286 275 308 312 304 310 351 355 2 22 11 28 21 16 22 21 21 13 22 23 25 26 21 18 14 14 12 10 7 7 6 7
239 231 230 241 243 245 247 249 251 250 251 251 257 258 274 269 270 268 283 293 296 293 304 331 328 331 356 12 8 4 15 10 11 6 5 2 4 13 15 9 9 6 3 3 1 359 357 357 356
226 229 239 233 238 244 245 242 252 247 246 247 255 259 262 264 254 268 276 284 287 288 313 307 319 315 323 345 338 329 347 350 356 357 350 349 346 356 357 2 0 358 356 355 350 351 350 349 350
229 232 225 229 240 252 243 245 245 251 247 254 254 253 252 242 258 273 273 272 272 286 299 297 299 308 301 311 323 318 306 336 339 340 343 338 330 325 331 337 346 353 351 350 343 342 342 342 342
230 230 232 240 239 242 245 238 242 245 246 254 244 247 242 245 259 267 254 279 288 289 298 289 285 289 293 286 297 302 300 309 320 323 331 328 319 325 315 326 328 336 345 344 343 336 333 334 337
227 226 231 230 231 230 237 233 242 236 252 251 242 240 248 250 252 249 260 266 277 283 293 290 289 280 288 294 297 292 303 298 297 315 307 312 313 315 320 315 321 328 329 334 337 334 333 326 329
228 227 227 228 222 226 231 230 240 241 253 243 245 242 252 252 247 251 261 265 268 279 286 287 281 280 280 284 293 301 293 300 296 293 297 304 305 310 314 315 314 317 322 323 328 330 330 327 322
217 223 228 226 226 226 226 231 235 247 234 245 239 253 250 250 247 252 257 261 269 279 280 280 276 278 275 275 284 288 288 293 294 295 291 293 297 300 303 305 310 307 310 312 316 323 326 326 321
213 221 228 226 226 229 233 236 236 234 228 238 242 245 256 250 258 256 257 262 261 274 278 276 267 275 271 268 279 281 281 291 296 298 291 291 294 298 298 308 310 309 309 305 311 313 318 321 320
215 220 228 229 225 224 230 230 233 233 236 237 251 249 252 243 261 254 260 267 264 268 271 270 265 265 270 271 276 280 275 283 289 291 295 299 295 300 303 298 307 310 310 309 314 315 318 313 316
222 221 224 227 225 226 230 227 236 232 232 238 245 251 244 241 253 257 255 260 260 262 262 268 265 268 268 273 276 275 272 279 284 283 300 292 294 299 300 299 302 307 301 304 307 312 314 316 316
227 225 226 225 222 229 230 228 235 234 232 243 252 240 239 244 249 251 258 255 258 263 260 272 265 269 271 267 273 280 271 273 280 290 288 295 293 293 294 295 296 295 298 300 309 309 312 313 312
229 225 227 221 223 226 228 237 236 238 238 245 236 239 235 245 252 253 253 248 256 263 256 264 265 261 262 269 272 275 277 278 289 292 293 291 289 289 293 294 294 294 296 302 306 306 307 309 310
231 229 228 221 225 225 226 230 228 235 238 235 233 239 237 251 244 255 249 253 250 258 249 257 267 263 268 268 269 272 275 276 280 285 287 286 283 285 285 289 293 294 297 299 301 303 307 307 306
237 237 228 225 228 226 232 231 226 234 239 238 236 241 246 248 241 248 241 250 248 251 250 251 265 262 268 269 271 275 277 277 280 279 282 285 289 292 293 291 291 293 293 296 299 300 303 305 304
239 235 234 230 227 229 231 231 229 232 238 241 242 241 247 247 245 241 242 247 246 249 255 253 256 262 267 264 269 275 279 280 280 281 287 286 286 289 293 294 292 290 291 295 297 300 302 302 302
238 238 241 235 228 231 232 233 226 235 238 240 240 243 244 245 244 240 240 248 245 251 255 253 255 264 263 264 269 274 276 274 280 282 282 283 285 287 289 289 291 291 289 293 296 299 300 301 302
246 245 243 237 235 235 235 232 228 230 236 242 239 239 242 245 243 239 241 243 246 253 255 253 256 263 264 264 267 271 275 272 274 276 278 281 286 285 285 285 287 288 288 292 296 297 297 299 297
248 249 247 240 238 238 235 233 232 229 232 237 239 239 243 244 246 243 247 247 249 252 252 254 258 259 265 260 265 269 270 273 280 278 274 278 283 283 283 286 286 288 290 291 293 295 295 296 299
245 247 249 245 243 240 234 235 234 232 231 235 239 237 238 240 242 241 242 245 253 254 250 257 257 262 263 259 261 266 270 271 280 278 274 277 281 282 282 284 285 287 289 289 290 291 293 295 299
Height
10887 10892 10894 10897 10900 10903 10907 10909 10912 10912 10916 10915 10915 10917 10919 10920 10919 10918 10916 10911 10909 10905 10900 10894 10887 10881 10876 10871 10868 10867 10868 10866 10867 10869 10870 10872 10873 10874 10874 10875 10877 10877 10878 10880 10880 10880 10879 10878 10876
10883 10887 10890 10893 10897 10900 10903 10906 10909 10909 10912 10913 10913 10915 10917 10918 10918 10916 10915 10910 10907 10905 10900 10894 10887 10880 10875 10870 10867 10865 10866 10865 10867 10870 10870 10871 10871 10872 10873 10875 10876 10877 10877 10878 10878 10877 10877 10876 10874
10878 10884 10886 10889 10892 10896 10900 10903 10905 10907 10909 10910 10912 10913 10914 10915 10916 10915 10913 10910 10907 10905 10899 10894 10887 10880 10874 10870 10867 10865 10865 10867 10868 10868 10869 10870 10870 10871 10873 10874 10874 10876 10877 10877 10877 10876 10875 10874 10872
10874 10880 10882 10885 10888 10892 10895 10899 10902 10905 10907 10907 10909 10910 10912 10914 10914 10913 10912 10909 10908 10905 10901 10896 10889 10880 10875 10871 10868 10866 10866 10867 10869 10870 10871 10871 10872 10873 10874 10875 10876 10877 10877 10877 10876 10874 10873 10872 10870
10869 10873 10877 10879 10883 10888 10891 10896 10899 10902 10903 10905 10907 10908 10910 10911 10912 10912 10910 10909 10907 10905 10901 10897 10892 10885 10878 10875 10872 10870 10869 10870 10871 10872 10873 10875 10875 10875 10876 10876 10876 10876 10875 10876 10875 10874 10873 10871 10869
10863 10867 10870 10874 10879 10884 10887 10892 10895 10898 10900 10902 10904 10905 10907 10909 10911 10910 10909 10908 10906 10904 10902 10897 10893 10888 10884 10879 10877 10874 10873 10874 10875 10876 10877 10877 10876 10876 10876 10877 10877 10877 10877 10876 10876 10874 10871 10869 10867
10857 10861 10864 10870 10874 10877 10883 10887 10890 10894 10897 10899 10901 10902 10904 10906 10908 10908 10907 10906 10905 10904 10901 10897 10893 10891 10886 10884 10883 10878 10877 10879 10880 10879 10879 10878 10878 10878 10879 10879 10879 10879 10879 10877 10875 10873 10871 10870 10868
10848 10853 10858 10862 10866 10871 10877 10882 10886 10890 10894 10896 10897 10900 10901 10902 10905 10907 10905 10905 10904 10903 10901 10898 10896 10893 10889 10887 10885 10883 10883 10881 10883 10882 10881 10881 10881 10881 10881 10881 10881 10880 10879 10877 10875 10873 10872 10870 10868
10838 10845 10850 10853 10859 10866 10872 10878 10882 10887 10890 10892 10895 10897 10898 10898 10901 10904 10903 10903 10903 10903 10901 10898 10896 10894 10892 10890 10889 10888 10887 10887 10886 10885 10884 10883 10882 10882 10881 10881 10880 10878 10877 10876 10874 10872 10870 10868 10866
10831 10836 10839 10845 10854 10861 10866 10871 10876 10881 10884 10887 10891 10893 10894 10895 10897 10900 10900 10900 10901 10900 10900 10898 10897 10895 10893 10892 10891 10890 10890 10889 10887 10887 10886 10884 10883 10882 10881 10880 10879 10876 10875 10874 10871 10870 10869 10866 10863
10823 10828 10832 10840 10846 10853 10857 10863 10869 10875 10878 10883 10885 10887 10890 10892 10892 10895 10897 10896 10898 10898 10897 10897 10897 10894 10892 10892 10891 10890 10889 10889 10888 10887 10886 10884 10883 10881 10880 10878 10876 10875 10873 10871 10869 10867 10864 10862 10859
10812 10817 10823 10831 10837 10845 10850 10857 10862 10867 10874 10877 10879 10882 10886 10886 10887 10890 10891 10893 10894 10894 10894 10894 10894 10893 10891 10890 10889 10888 10887 10887 10887 10886 10885 10882 10881 10880 10878 10876 10875 10873 10871 10869 10866 10863 10861 10857 10854
10800 10806 10815 10823 10829 10836 10843 10848 10855 10860 10866 10869 10872 10876 10880 10882 10883 10883 10885 10888 10890 10889 10889 10890 10890 10889 10890 10888 10888 10887 10886 10885 10884 10883 10882 10880 10879 10877 10876 10874 10873 10871 10868 10864 10861 10858 10855 10852 10848
10784 10798 10807 10814 10819 10826 10835 10841 10848 10853 10857 10860 10865 10870 10874 10876 10878 10879 10881 10881 10884 10884 10885 10885 10886 10885 10885 10884 10884 10883 10883 10882 10881 10880 10878 10877 10875 10873 10872 10870 10868 10866 10864 10861 10858 10854 10851 10847 10843
10772 10788 10796 10801 10809 10816 10825 10834 10835 10843 10848 10852 10858 10862 10867 10869 10871 10875 10874 10875 10878 10878 10879 10879 10881 10881 10881 10880 10879 10878 10878 10877 10875 10874 10873 10872 10871 10869 10868 10867 10865 10863 10860 10858 10854 10850 10846 10841 10837
10762 10775 10782 10788 10796 10804 10814 10821 10824 10833 10839 10844 10850 10854 10858 10862 10867 10868 10869 10870 10873 10873 10873 10873 10874 10874 10876 10876 10875 10874 10873 10873 10871 10870 10868 10866 10865 10864 10862 10860 10858 10857 10855 10852 10848 10844 10839 10834 10829
10756 10766 10767 10774 10785 10795 10804 10809 10813 10822 10829 10836 10841 10847 10852 10855 10858 10861 10863 10865 10867 10867 10867 10869 10869 10869 10869 10869 10869 10868 10868 10867 10865 10864 10863 10861 10860 10858 10856 10855 10854 10851 10848 10845 10841 10837 10833 10826 10820
10747 10747 10750 10764 10774 10784 10793 10797 10803 10812 10819 10826 10834 10841 10844 10846 10850 10854 10856 10858 10859 10860 10861 10862 10862 10863 10863 10863 10862 10861 10861 10860 10859 10858 10856 10854 10853 10852 10851 10849 10848 10845 10842 10837 10834 10828 10824 10818 10812
10734 10738 10740 10751 10760 10771 10781 10784 10791 10801 10809 10817 10825 10831 10834 10837 10844 10844 10848 10850 10850 10852 10853 10854 10854 10854 10855 10856 10855 10854 10854 10853 10852 10850 10848 10847 10845 10844 10843 10840 10838 10837 10834 10829 10825 10820 10816 10809 10800
10722 10727 10730 10736 10744 10755 10765 10775 10779 10792 10802 10808 10813 10820 10824 10829 10836 10836 10838 10841 10842 10843 10845 10845 10846 10847 10847 10848 10848 10846 10846 10845 10844 10842 10840 10837 10835 10835 10834 10831 10828 10825 10823 10819 10815 10811 10806 10802 10795
10705 10711 10715 10723 10731 10742 10752 10768 10773 10780 10788 10794 10802 10807 10813 10818 10823 10827 10829 10830 10831 10833 10834 10836 10837 10837 10837 10839 10838 10837 10837 10837 10836 10835 10832 10829 10826 10825 10823 10821 10817 10814 10811 10809 10805 10800 10795 10790 10786
10686 10695 10704 10710 10721 10728 10737 10756 10760 10767 10777 10784 10789 10795 10800 10805 10809 10813 10816 10819 10821 10822 10825 10826 10827 10828 10828 10829 10829 10829 10828 10827 10827 10825 10821 10820 10817 10816 10814 10811 10808 10804 10800 10797 10793 10788 10783 10778 10772
10673 10682 10690 10695 10704 10715 10727 10736 10750 10750 10767 10771 10776 10782 10786 10790 10794 10798 10801 10805 10810 10813 10813 10814 10816 10817 10818 10818 10819 10818 10817 10817 10817 10813 10811 10810 10808 10804 10805 10801 10797 10793 10788 10784 10778 10773 10768 10763 10757
10661 10667 10677 10685 10692 10707 10713 10718 10741 10735 10747 10755 10760 10766 10771 10774 10779 10784 10788 10794 10797 10799 10800 10802 10803 10804 10806 10808 10808 10808 10807 10806 10806 10803 10801 10799 10795 10792 10790 10787 10784 10779 10775 10770 10764 10759 10754 10748 10742
10648 10655 10662 10670 10679 10698 10697 10703 10734 10722 10728 10738 10745 10750 10755 10758 10763 10769 10775 10779 10780 10783 10784 10789 10791 10793 10794 10795 10794 10795 10794 10793 10793 10789 10787 10786 10783 10779 10776 10774 10770 10766 10760 10755 10750 10745 10739 10733 10727
10625 10633 10638 10643 10660 10673 10680 10695 10714 10712 10711 10718 10725 10733 10739 10745 10746 10750 10755 10759 10762 10766 10770 10775 10778 10780 10782 10782 10782 10782 10781 10780 10779 10775 10773 10771 10770 10766 10763 10758 10754 10750 10746 10740 10735 10729 10723 10717 10711
10604 10614 10614 10625 10643 10653 10671 10683 10694 10698 10699 10700 10711 10715 10721 10723 10725 10731 10737 10742 10746 10750 10756 10759 10763 10766 10767 10768 10769 10768 10766 10767 10766 10763 10760 10756 10754 10750 10748 10744 10740 10735 10730 10724 10719 10712 10706 10699 10692
10584 10589 10593 10611 10627 10642 10659 10669 10672 10678 10681 10682 10691 10695 10699 10702 10708 10714 10719 10723 10729 10734 10739 10744 10747 10749 10752 10753 10754 10754 10753 10752 10751 10749 10745 10741 10738 10734 10730 10727 10723 10718 10713 10707 10701 10694 10687 10679 10670
10562 10572 10577 10588 10602 10621 10638 10654 10655 10658 10663 10666 10668 10675 10681 10687 10692 10700 10704 10710 10714 10718 10722 10727 10730 10733 10735 10736 10737 10737 10735 10734 10734 10734 10729 10726 10722 10718 10714 10710 10705 10699 10694 10689 10682 10675 10667 10657 10648
10538 10547 10553 10573 10589 10594 10611 10637 10640 10635 10640 10642 10648 10654 10661 10665 10671 10678 10687 10693 10697 10701 10706 10710 10713 10715 10715 10716 10717 10717 10718 10715 10713 10710 10710 10708 10702 10699 10695 10690 10684 10680 10674 10667 10660 10653 10642 10634 10625